Location: Albany
(35.0000°S, 118.0000°E)
Time: 15:16:45
(UTC-05:00)

CZ-4B R/B - Visible Passes

Search period start: 04 March 2015 00:00
Search period end: 14 March 2015 01:00
Orbit: 491 x 669 km, 97.6° (Epoch: 03 March)

Date Brightness Start Highest point End Pass type
(mag) Time Alt. Az. Time Alt. Az. Time Alt. Az.
04 Mar 5.9 13:38:15 15° SSE 13:38:15 15° SSE 13:39:27 10° SSE visible
04 Mar 5.3 15:14:36 12° SW 15:14:36 12° SW 15:15:03 10° SW visible
05 Mar 5.8 13:43:27 16° SSE 13:43:27 16° SSE 13:44:41 10° SSE visible
05 Mar 5.5 15:19:48 11° SW 15:19:48 11° SW 15:19:57 10° SW visible
06 Mar 5.8 13:48:39 16° SSE 13:48:39 16° SSE 13:49:53 10° SSE visible
07 Mar 5.7 13:53:51 17° SSE 13:53:51 17° SSE 13:55:03 10° S visible
08 Mar 5.7 14:59:03 17° SSE 14:59:03 17° SSE 15:00:11 10° S visible
09 Mar 5.7 15:04:14 16° S 15:04:14 16° S 15:05:18 10° S visible
10 Mar 5.7 15:09:26 16° S 15:09:26 16° S 15:10:23 10° S visible
11 Mar 5.7 15:14:37 15° S 15:14:37 15° S 15:15:27 10° S visible
12 Mar 5.7 15:19:48 14° S 15:19:48 14° S 15:20:29 10° S visible
13 Mar 5.8 15:24:59 13° S 15:24:59 13° S 15:25:29 10° S visible
